Regional Weather Roundup
Issued by NWS Green Bay, WI

Home | Current Version | Previous Version | Text Only | Print | Product List | Glossary On
Versions: 1 2 3 4 5 6 7 8 9 10 11 12 13 14 15 16 17 18 19 20 21 22 23 24 25 26 27 28 29 30 31 32 33 34 35 36 37 38 39 40 41 42 43 44 45 46 47 48 49 50
000
ASUS43 KGRB 261411
RWRGRB

NORTH-CENTRAL AND NORTHEAST WISCONSIN REGIONAL WEATHER ROUNDUP
NATIONAL WEATHER SERVICE GREEN BAY WI
900 AM CDT THU MAY 26 2016

WIZ005-009-010>012-018-019-261500-
NORTH CENTRAL WISCONSIN

CITY           SKY/WX    TMP DP  RH WIND       PRES   REMARKS
IRONWOOD       CLOUDY    63  61  94 CALM      29.78F
MANITOWISH WTR NOT AVBL
ARBOR VITAE    CLOUDY    62  60  94 SE5       29.82F
EAGLE RIVER      N/A     63  61  95 CALM      29.82F
LAND O LAKES   CLOUDY    63  61  91 CALM      29.84F
RHINELANDER    CLOUDY    63  62  97 S5        29.83F FOG
PHILLIPS       CLOUDY    62  62 100 S10       29.81S
ANTIGO         LGT RAIN  62  62 100 S13G20    29.87R VSB 1/2
TOMAHAWK       CLOUDY    63  62  97 CALM      29.84S FOG
MERRILL        TSTM      62  62 100 S9        29.86R
$$

WIZ013-073-261500-
NORTHEAST WISCONSIN

CITY           SKY/WX    TMP DP  RH WIND       PRES   REMARKS
IRON MOUNTAIN  CLOUDY    67  61  81 W7        29.83R
MARINETTE      CLOUDY    62  61  96 S6        29.86F FOG
OCONTO         CLOUDY    62  62 100 CALM      29.85S
$$

WIZ017-030-035>037-045-261500-
CENTRAL WISCONSIN

CITY           SKY/WX    TMP DP  RH WIND       PRES   REMARKS
MEDFORD        RAIN      60  60 100 SE3       29.85S
WAUSAU         RAIN      63  32  31 S5        29.84F
MOSINEE        TSTM      61  61 100 NW3       29.86F
MARSHFIELD     LGT RAIN  62  60  93 NE6       29.80F
WISC RAPIDS    LGT RAIN  61  59  93 NE8       29.79F
STEVENS POINT  RAIN      59  59 100 N3        29.82F
WAUPACA        RAIN      64  63  96 CALM      29.86F
SHAWANO        CLOUDY    64  63  96 CALM      29.85F FOG
CLINTONVILLE   CLOUDY    63  63 100 SW8       29.87R FOG
WAUTOMA        LGT RAIN  62  61  96 N5        29.80F
$$

WIZ038-039-048-051-261500-
FOX VALLEY

CITY           SKY/WX    TMP DP  RH WIND       PRES   REMARKS
NWS GREEN BAY  CLOUDY    65  64  97 S7        29.86R FOG
APPLETON       CLOUDY    64  64 100 SW9       29.86R
OSHKOSH        LGT RAIN  66  61  84 CALM      29.85S
FOND DU LAC    LGT RAIN  66  63  90 NE10      29.83F
$$

WIZ022-050-052-261500-
EAST CENTRAL WISCONSIN

CITY           SKY/WX    TMP DP  RH WIND       PRES   REMARKS
EPHRAIM        FOG       60  60 100 CALM      29.85F VSB 1
STURGEON BAY   NOT AVBL
MANITOWOC      CLOUDY    59  59 100 CALM      29.88R FOG
SHEBOYGAN      CLOUDY    70  65  84 SW14      29.90R
$$

LMZ563-521-522-541>543-261500-
LAKESHORE

STATION/POSITION TIME  TEMP    WIND        PRES    VSBY  WAVE
                       AIR SEA DIR/SP/G                  HT/PER
                 (UTC) (F)     (DEG/KT/KT) (MB)    (MI)  (FT/S)
SHEBOYGAN LKSHOR 1400   55     180/ 19/ 20 1012.8R
KEWAUNEE LKSHORE 1300   49     150/  3/  5 1010.8S
ALGOMA MARINA    1317          150/  4/  8   N/A
NORTHPORT PIER   1300   56     170/  7/ 10 1011.2R
N MID LAKE BUOY  1350   48 45  200/ 14/ 16 1011.0S         1/ 3
SISTER BAY LKSHO 1305   58     170/  9/ 11   N/A
CHAMBERS ISLAND  1300   59     170/  4/  7 1011.5R
MENOMINEE LKSHOR 1300   56     180/  8/ 10 1010.4R
$$




USA.gov is the U.S. government's official web portal to all federal, state and local government web resources and services.